#timestamp,LO_Frequency,Hit,StdDev 
1514934015.1,286047001.0,N
1514934035.9,286046998.4,N
1514934055.7,286046999.9,N
1514934075.6,286047000.6,N
1514934095.4,286046998.4,N
1514934115.2,286047000.6,N
1514934135.1,286047000.7,N
1514934136.0,286047000.7,N
1514934155.8,286046998.8,N
1514934175.7,286046998.3,N
1514934195.5,286046998.1,N
1514934215.3,286046996.9,N
1514934235.2,286046997.2,N
1514934255.0,286046994.9,N
1514934255.9,286046994.9,N
1514934275.7,286046999.5,N
1514934295.6,286046998.4,N
1514934315.4,286046997.8,N
1514934335.3,286046995.4,N
1514934355.1,286046996.2,N
1514934356.0,286046996.2,N
1514934375.8,286046993.3,Y
1514934395.7,286046998.4,P
1514934415.5,286047000.7,P
1514934435.4,286047004.3,P
1514934455.2,286047003.9,N
1514934475.0,286047001.9,N
1514934475.9,286047001.9,N
1514934495.8,286047000.2,N
1514934515.6,286047000.9,N
1514934535.5,286047001.9,N
1514934555.3,286047002.4,N
1514934575.1,286047000.9,N
1514934595.9,286046999.4,N
1514934615.7,286046998.5,N
1514934635.5,286046999.2,N
1514934655.4,286046998.4,N
1514934675.2,286047001.1,N
1514934695.1,286047001.1,N
1514934696.0,286047001.1,N
1514934715.8,286046996.6,N
1514934735.6,286046998.6,N
1514934755.5,286046994.9,N
1514934775.3,286046996.6,N
1514934795.2,286046996.6,N
1514934815.9,286046997.8,N
1514934835.7,286046997.7,N
1514934855.6,286046996.9,N
1514934875.4,286046998.2,N
1514934895.2,286046999.5,N
1514934915.1,286046995.0,N
1514934916.0,286046995.0,N
1514934935.8,286046996.3,N
1514934955.7,286046993.9,N
1514934975.5,286046993.3,N
1514934995.3,286046995.0,N
1514935045.2,286046997.6,E
1514935055.1,286046996.7,N
1514935075.9,286046996.6,P
1514935095.7,286046998.3,P
1514935115.5,286046995.2,Y
1514935135.4,286046996.8,P
1514935155.2,286046997.3,P
1514935175.1,286046998.1,P
1514935176.0,286046998.1,Y
1514935195.8,286047002.6,P
1514935215.6,286047001.0,N
1514935235.5,286047001.2,N
1514935255.3,286047000.5,N
1514935275.2,286047000.2,N
1514935295.9,286047002.3,N
1514935315.7,286047002.7,N
1514935335.6,286047004.0,N
1514935355.4,286047001.8,N
1514935375.2,286047002.0,N
1514935395.1,286047002.3,N
1514935396.0,286047002.3,N
1514935415.8,286047002.6,N
1514935435.7,286047002.7,N
1514935455.5,286047001.7,N
1514935475.3,286047002.1,N
1514935495.2,286047000.0,N
1514935515.0,286047000.8,N
1514935515.9,286047000.8,N
1514935535.7,286046998.8,N
1514935555.6,286046999.3,N
1514935575.4,286046996.5,N
1514935595.3,286046999.2,N
1514935615.1,286046998.8,N
1514935616.0,286046998.8,N
1514935635.8,286047000.7,N
1514935655.7,286046998.2,N
1514935675.5,286046997.2,N
1514935695.3,286046999.1,N
1514935715.2,286046999.0,N
1514935735.0,286046996.6,N
1514935735.9,286046996.6,N
1514935755.8,286046999.2,N
1514935775.6,286046998.2,N
1514935795.4,286046998.9,N
1514935815.3,286047001.2,N
1514935835.1,286046997.0,N
1514935855.7,286046999.3,N
1514935875.5,286046997.0,N
1514935895.4,286046999.1,N
1514935915.2,286047000.9,N
1514935935.0,286046998.1,N
1514935935.9,286046998.1,N
1514935955.8,286047000.9,N
1514935975.6,286046999.6,N
1514935995.4,286046996.7,N
1514936015.3,286046999.3,N
1514936035.1,286046997.5,N
1514936055.9,286046995.2,Y
1514936075.7,286046999.5,P
1514936095.5,286046998.7,P
1514936115.4,286046996.5,P
1514936135.2,286046997.4,N
1514936155.0,286046997.8,N
1514936156.0,286046997.8,N
1514936175.8,286046998.4,N
1514936195.6,286046999.3,N
1514936215.5,286046998.2,N
1514936235.3,286047000.8,N
1514936255.1,286046998.8,N
1514936275.9,286046997.0,N
1514936295.7,286047001.0,N
1514936315.6,286046996.5,N
1514936335.4,286046999.6,N
1514936355.2,286046999.2,N
1514936375.1,286046996.5,N
1514936376.0,286046996.5,N
1514936395.8,286046999.3,N
1514936415.6,286046997.6,N
1514936435.5,286046997.6,N
1514936455.3,286046996.5,N
1514936475.2,286046997.4,N
1514936495.9,286046997.6,N
1514936515.7,286046997.6,N
1514936535.6,286046996.8,N
1514936555.4,286046997.0,N
1514936575.2,286046997.5,N
1514936595.1,286046998.0,N
1514936596.0,286046998.0,N
1514936615.8,286046995.1,Y
1514936635.7,286047001.0,P
1514936655.5,286046998.5,N
1514936675.3,286047001.0,N
1514936695.2,286047000.7,N
1514936715.0,286047001.0,N
1514936715.9,286047001.0,N
1514936735.8,286046998.9,N
1514936755.6,286047000.0,N
1514936775.4,286046998.4,N
1514936795.3,286046999.5,N
1514936815.1,286046996.6,Y
1514936835.8,286047000.5,P
1514936855.7,286046999.9,N
1514936875.5,286046998.2,P
1514936895.4,286047002.2,N
1514936915.2,286047001.9,N
1514936935.0,286047002.3,N
1514936935.9,286047002.3,N
1514936955.8,286047002.1,N
1514936975.6,286047001.9,N
1514936995.5,286047001.4,N
1514937015.3,286047002.0,N
1514937035.1,286047000.5,N
1514937055.9,286047001.3,N
1514937075.7,286047003.6,Y
1514937095.5,286047003.3,P
1514937115.4,286047001.3,N
1514937135.2,286047001.1,N
1514937155.1,286047001.5,N
1514937156.0,286047001.5,N
1514937175.8,286046998.3,N
1514937195.6,286046997.4,N
1514937215.5,286046997.4,N
1514937235.3,286046997.4,N
1514937255.2,286046996.9,N
1514937275.9,286046995.5,N
1514937295.7,286046999.1,N
1514937315.6,286046999.2,N
1514937335.4,286047000.8,N
1514937355.2,286047001.2,N
1514937375.1,286047000.7,N
1514937376.0,286047000.7,N
1514937395.8,286046999.9,N
1514937415.7,286046999.0,N
1514937435.5,286046999.9,N
1514937455.3,286046998.3,N
1514937475.2,286047001.2,N
1514937495.0,286046999.4,N
1514937495.9,286046999.4,N
1514937515.8,286046999.4,N
1514937535.7,286046996.5,N
1514937555.5,286046999.5,N
1514937575.4,286046998.9,N
1514937595.2,286046997.9,N
